Flag for United Kingdom Weather past 2 weeks in Loughton, England, United Kingdom

Now
59 °F

Cool.


Feels Like: 57 °F
Forecast: 50 / 65 °F
Wind: 10 mph from Northeast

Location: Gravesend-Broadness

Current Time: May 23, 2015 at 12:11:46 PM

Latest Report: May 23, 2015 at 11:00 AM


Visibility: N/A

Pressure: 30.25 "Hg

Humidity: 77%

Dew point: 51 °F

Location of LoughtonLocation

Historic Weather in Loughton — Graph

°F

Loughton temperature yesterday

Maximum temperature yesterday: 67 °F (at 2:00 PM)
Minimum temperature yesterday: 48 °F (at 5:00 AM)
Average temperature yesterday: 59 °F

Past Weeks' High & Low Weather Summary

 TemperatureHumidityPressure
High73 °F (May 11, 4:00 PM)96% (May 15, 12:00 AM)30.35 "Hg (May 15, 12:00 AM)
Low42 °F (May 10, 4:00 AM)34% (May 13, 1:00 PM)29.59 "Hg (May 18, 2:00 PM)
Average55 °F69%30.06 "Hg
* Reported May 8 10:00 AM — May 23 10:00 AM, Loughton, Weather by CustomWeather, © 2015

Note: Actual official high and low records may vary slightly from our data, if they occured in-between our weather recording intervals... More about our weather records

Advertising

Loughton weather history for previous 24 hours

 ConditionsComfort  
Time TempWeatherWind HumidityBarometerVisibility
10:00 AM
Sat, May 23
62 °FCool.6 mph75%30.25 "HgN/A
9:00 AM60 °FCool.6 mph77%30.24 "HgN/A
8:00 AM58 °FCool.7 mph82%30.24 "HgN/A
7:00 AM56 °FCool.6 mph83%30.23 "HgN/A
6:00 AM57 °FCool.6 mph83%30.22 "HgN/A
5:00 AM58 °FCool.8 mph83%30.22 "HgN/A
4:00 AM59 °FCool.7 mph81%30.21 "HgN/A
3:00 AM59 °FCool.7 mph80%30.22 "HgN/A
2:00 AM60 °FCool.9 mph78%30.22 "HgN/A
1:00 AM62 °FCool.8 mph76%30.22 "HgN/A
12:00 AM60 °FCool.5 mph82%30.22 "HgN/A
11:00 PM
Fri, May 22
60 °FCool.3 mph81%30.22 "HgN/A
9:00 PM62 °FCool.5 mph73%30.21 "HgN/A
8:00 PM63 °FMild.3 mph69%30.20 "HgN/A
7:00 PM66 °FMild.7 mph62%30.20 "HgN/A
6:00 PM66 °FMild.6 mph64%30.20 "HgN/A
5:00 PM65 °FMild.9 mph64%30.22 "HgN/A
4:00 PM65 °FMild.9 mph66%30.22 "HgN/A
3:00 PM65 °FMild.9 mph64%30.23 "HgN/A
2:00 PM67 °FMild.6 mph51%30.23 "HgN/A
1:00 PM67 °FMild.8 mph54%30.25 "HgN/A
12:00 PM64 °FMild.7 mph54%30.27 "HgN/A
Weather by CustomWeather, © 2015

See weather overviewHow to use our weather pages